Simultaneous Nadir Overpasses (SNOs) Predictions

Prediction of SNOs over PacNW region [( 10.00, 139.50) to ( 22.70, 165.60)] between AQUA and NPP Satellites:

Table of predicted SNOs over PacNW region for the next 30.0 days since TLE Epoch: 2/25/2023
Index Date (AQUA) Time (AQUA) AQUA Lat,Lon Date (NPP) Time (NPP) NPP Lat,Lon Distance(km) Time Diff (sec)
1 03/01/2023 02:39:27 22.64, 163.01 03/01/2023 02:37:52 21.81, 158.77 445.98 95
2 03/01/2023 04:15:55 14.04, 140.28 03/01/2023 04:16:52 13.02, 135.51 528.43 57
3 03/03/2023 16:16:54 10.03, 143.60 03/03/2023 16:13:25 10.02, 139.96 398.13 209
4 03/11/2023 15:18:56 22.37, 160.11 03/11/2023 15:18:51 23.19, 155.85 446.53 5
5 03/14/2023 03:39:02 22.65, 148.23 03/14/2023 03:35:33 24.40, 143.93 480.42 209
6 03/22/2023 02:44:14 22.67, 162.00 03/22/2023 02:43:56 21.75, 157.34 490.53 18
7 03/24/2023 16:20:19 14.35, 143.58 03/24/2023 16:18:01 15.12, 139.71 426.11 138
